[[{"header":{"parameterUnit":"m.s-1","parameterCategory":2,"la1":30.2991,"la2":30.254,"lo1":-89.0895,"lo2":-89.0444,"dy":0.0017,"dx":0.0017,"nx":28,"ny":28,"refTime":"2025-02-04T09:00:00:Z","depth":"0","parameterNumber":2,"parameterNumberName":"U-component_of_CURRENTS"},"data":[0,0,0,0,0,0,0,0,0,0,0,0,0,0,0,0,0,0,0,0,0,0,0,0,0,0,0,0,0,0,0,0,0,0,0,0,0,0,0,0,0,0,0,0,0,0,0,0,0,0,0,0,0,0,0,0,0,0,0.3299,0.33,0,0.3317,0.3317,0.3316,0.3233,0.3232,0.323,0.3229,0.3245,0.3247,0.3249,0,0,0,0,0,0,0,0,0,0,0,0,0,0.3205,0.3206,0.3299,0.33,0.3301,0.3317,0.3317,0.3316,0.3234,0.3232,0.323,0.3228,0.3244,0.3247,0.3249,0,0,0,0,0,0,0,0,0,0,0,0,0,0.3228,0.3207,0.3298,0.3269,0.3267,0.3317,0.3317,0.3316,0.3234,0.3232,0.3229,0.3227,0.3244,0.3247,0.3249,0.3314,0,0,0.3258,0.3259,0,0,0,0,0,0,0,0,0.3227,0.323,0.3272,0.3271,0.3269,0.3279,0.329,0.3318,0.3235,0.3237,0.3229,0.3226,0.3264,0.3265,0.326,0.3314,0.3315,0.3258,0.326,0.3261,0.3262,0,0,0,0,0,0,0,0.3225,0.3229,0.3296,0.3274,0.3272,0.326,0.3259,0.3294,0.3256,0.3236,0.3233,0.325,0.3261,0.3258,0.326,0.3315,0.3258,0.3261,0.3262,0.3264,0.3467,0.347,0,0,0,0,0,0,0.3244,0.3228,0.3296,0.3298,0.3252,0.3264,0.3263,0.327,0.3256,0.3254,0.3252,0.3247,0.3254,0.3257,0.3261,0.3364,0.3261,0.3264,0.3265,0.3463,0.3467,0.3471,0,0,0,0,0,0,0.3242,0.3249,0.3295,0.3271,0.3277,0.3269,0.3278,0.3272,0.3263,0.327,0.3265,0.3249,0.3252,0.3257,0.3306,0.3363,0.3265,0.3268,0.3459,0.3464,0.3469,0.3553,0,0,0,0,0,0,0.3239,0.3248,0.3263,0.3272,0.328,0.3314,0.3281,0.3275,0.3283,0.3275,0.3267,0.3265,0.3251,0.3303,0.3309,0.3365,0.327,0.3454,0.3461,0.3468,0.3546,0.3561,0.3574,0,0,0,0,0,0.3235,0.3267,0.3263,0.3272,0.3298,0.3315,0.3316,0.3296,0.3285,0.3279,0.3296,0.3265,0.3351,0.3308,0.3315,0.3372,0.3451,0.3459,0.3467,0.3539,0.3558,0.3573,0,0,0,0,0,0,0.3238,0.3264,0.3258,0.3296,0.3301,0.3304,0.3321,0.3308,0.3315,0.3314,0.3307,0.3309,0.3378,0.3374,0.3326,0.3457,0.34,0.341,0.3452,0.347,0.3483,0.3493,0.3272,0,0,0,0,0,0.325,0.3275,0.3288,0.3319,0.3329,0.3327,0.3337,0.3318,0.3332,0.3329,0.3332,0.3363,0.3424,0.344,0.3474,0.3543,0.3544,0.359,0.3604,0.3616,0.3633,0.3691,0.3711,0.3499,0.3499,0.3499,0,0,0.3261,0.3283,0.3295,0.3321,0.333,0.3364,0.3323,0.3338,0.3377,0.3339,0.3393,0.3409,0.3455,0.353,0.3561,0.3528,0.3678,0.3626,0.3636,0.3647,0.3702,0.3722,0.374,0.3504,0.3503,0.3503,0,0,0.3304,0.3316,0.335,0.3364,0.3385,0.339,0.3398,0.3401,0.341,0.3474,0.347,0.3522,0.3591,0.363,0.3669,0.379,0.3753,0.38,0.3873,0.3929,0.3946,0.3961,0.3981,0.3997,0.3802,0.3802,0.3802,0,0.3316,0.3362,0.3361,0.3403,0.3434,0.3411,0.3455,0.3477,0.3493,0.3515,0.3504,0.3626,0.3655,0.3769,0.3817,0.3822,0.3828,0.3797,0.3944,0.3959,0.3973,0.399,0.4007,0.3807,0.3807,0.3806,0.3806,0,0.3381,0.3421,0.3449,0.3497,0.3526,0.3555,0.3591,0.3608,0.363,0.3641,0.3734,0.378,0.3835,0.3877,0.3897,0.4015,0.3978,0.3953,0.389,0.3999,0.401,0.4026,0.3814,0.3813,0.3811,0.381,0,0,0.3398,0.3475,0.3485,0.3523,0.3575,0.3602,0.3684,0.3734,0.377,0.3813,0.3877,0.401,0.398,0.4026,0.404,0.4113,0.4227,0.4083,0.4084,0.4084,0.4326,0.4217,0.4223,0.4217,0.422,0.4223,0.429,0,0.3445,0.3536,0.3568,0.3658,0.3709,0.3728,0.3799,0.384,0.3875,0.3917,0.3983,0.4045,0.4054,0.4077,0.4156,0.4206,0.4275,0.421,0.4238,0.4239,0.4114,0.4241,0.4082,0.4121,0.4305,0.4307,0.4309,0,0.3492,0.3556,0.3645,0.3735,0.3758,0.3799,0.388,0.3938,0.3993,0.4018,0.4071,0.4085,0.42,0.4189,0.4333,0.4284,0.4325,0.4366,0.4368,0.4251,0.4161,0.4048,0.4142,0.4008,0.4333,0.4331,0.4329,0,0.3503,0.3607,0.368,0.3712,0.3807,0.3845,0.3889,0.3948,0.3979,0.4058,0.4071,0.4175,0.422,0.4314,0.4381,0.4366,0.452,0.4493,0.4435,0.4425,0.429,0.4262,0.4242,0.4612,0.4612,0.4612,0.4612,0,0.3543,0.36,0.3678,0.3721,0.3782,0.3854,0.3897,0.395,0.3999,0.4011,0.4096,0.4128,0.426,0.4333,0.4403,0.4456,0.4526,0.448,0.4455,0.4313,0.4288,0.4161,0.4107,0.4615,0.4614,0.4614,0.4613,0,0.3538,0.3593,0.3668,0.3764,0.3782,0.3821,0.3864,0.3877,0.3951,0.3974,0.3997,0.4108,0.4208,0.4307,0.4454,0.4458,0.4406,0.4533,0.4338,0.429,0.4089,0.4046,0.391,0.3804,0.449,0.4488,0.4486,0,0.355,0.3588,0.3667,0.3668,0.3699,0.3745,0.3746,0.383,0.3833,0.3941,0.3939,0.4058,0.4096,0.4258,0.4315,0.4399,0.4312,0.4291,0.4253,0.4081,0.4018,0.3888,0.38,0.4108,0.4104,0.41,0.4097,0,0.356,0.3566,0.3609,0.36,0.3602,0.3606,0.3624,0.3619,0.3701,0.374,0.3777,0.3832,0.3981,0.4002,0.412,0.4159,0.4063,0.4213,0.4105,0.3787,0.3579,0.346,0.4039,0.4063,0.4067,0.4069,0.4071,0.4072,0.353,0.3521,0.3524,0.35,0.3491,0.3429,0.3382,0.3406,0.3403,0.3421,0.3572,0.3613,0.3745,0.3886,0.3891,0.3778,0.3811,0.3705,0.369,0.3592,0.3416,0.3901,0.3847,0.3849,0.3851,0.3852,0.3854,0,0.3446,0.3425,0.341,0.3349,0.3268,0.3305,0.3257,0.3182,0.3125,0.3228,0.3267,0.3341,0.3375,0.3457,0.3421,0.3295,0.3186,0.3202,0.3005,0.2966,0.3464,0.3372,0.3125,0.3125,0.3125,0.3125,0.3125,0.3126,0.3397,0.3329,0.3299,0.3131,0.308,0.2927,0.2871,0.28,0.2826,0.2789,0.2817,0.2931,0.3063,0.31,0.2963,0.2897,0.2688,0.2557,0.2568,0.2934,0.298,0.3023,0.2924,0.2588,0.2587,0.1959,0.1954,0.1951]},{"header":{"parameterUnit":"m.s-1","parameterCategory":2,"la1":30.2991,"la2":30.254,"lo1":-89.0895,"lo2":-89.0444,"dy":0.0017,"dx":0.0017,"nx":28,"ny":28,"refTime":"2025-02-04T09:00:00:Z","depth":"0","parameterNumber":3,"parameterNumberName":"V-component_of_CURRENTS"},"data":[0,0,0,0,0,0,0,0,0,0,0,0,0,0,0,0,0,0,0,0,0,0,0,0,0,0,0,0,0,0,0,0,0,0,0,0,0,0,0,0,0,0,0,0,0,0,0,0,0,0,0,0,0,0,0,0,0,0,0.0596,0.0596,0,0.0538,0.0537,0.0536,0.044,0.0439,0.0437,0.0436,0.0337,0.0335,0.0334,0,0,0,0,0,0,0,0,0,0,0,0,0,0.0575,0.0576,0.0596,0.0596,0.0595,0.0538,0.0537,0.0535,0.0441,0.0439,0.0437,0.0435,0.0337,0.0336,0.0334,0,0,0,0,0,0,0,0,0,0,0,0,0,0.0554,0.0576,0.0596,0.0543,0.0538,0.0538,0.0537,0.0535,0.0441,0.0439,0.0437,0.0435,0.0338,0.0336,0.0334,0.0365,0,0,0.0328,0.0327,0,0,0,0,0,0,0,0,0.0555,0.0555,0.0552,0.0547,0.0541,0.0497,0.0493,0.0478,0.0441,0.0475,0.0436,0.0433,0.039,0.0384,0.0374,0.0361,0.0357,0.0328,0.0327,0.0326,0.0325,0,0,0,0,0,0,0,0.0557,0.0556,0.057,0.0551,0.0545,0.0505,0.05,0.0489,0.0442,0.0471,0.0465,0.0465,0.0386,0.0376,0.0371,0.0355,0.0328,0.0326,0.0325,0.0324,0.0403,0.0406,0,0,0,0,0,0,0.0576,0.0558,0.0572,0.0568,0.0547,0.0508,0.0502,0.0511,0.0443,0.0432,0.0467,0.046,0.038,0.0373,0.0367,0.0442,0.0326,0.0324,0.0323,0.04,0.0404,0.0408,0,0,0,0,0,0,0.0576,0.0579,0.0574,0.0563,0.056,0.0511,0.0522,0.0511,0.0495,0.044,0.0427,0.0462,0.0378,0.0369,0.0383,0.0435,0.0323,0.0321,0.0396,0.0401,0.0406,0.0565,0,0,0,0,0,0,0.0576,0.0579,0.0598,0.0566,0.0562,0.0591,0.0524,0.0511,0.05,0.0491,0.0433,0.0421,0.0376,0.0387,0.0381,0.0431,0.032,0.0392,0.0398,0.0404,0.0556,0.0575,0.0591,0,0,0,0,0,0.0576,0.0617,0.06,0.0602,0.0588,0.0594,0.0589,0.0543,0.0503,0.0516,0.0485,0.0422,0.0421,0.0388,0.0381,0.0431,0.0389,0.0397,0.0404,0.0548,0.0571,0.0591,0,0,0,0,0,0,0.062,0.0611,0.0591,0.0627,0.0618,0.0579,0.0592,0.0555,0.0539,0.0526,0.0463,0.0452,0.0487,0.0444,0.0409,0.0475,0.0396,0.0402,0.0508,0.0529,0.0547,0.0566,0.0318,0,0,0,0,0,0.0641,0.0664,0.0647,0.0675,0.0677,0.0635,0.0631,0.0599,0.0578,0.0566,0.053,0.0505,0.0515,0.0508,0.0502,0.0535,0.0484,0.0564,0.0582,0.0597,0.0611,0.0609,0.0627,0.0432,0.0432,0.0431,0,0,0.0663,0.0663,0.0674,0.0685,0.0671,0.0696,0.0627,0.0631,0.0657,0.0562,0.0592,0.0567,0.0541,0.0585,0.0595,0.055,0.0623,0.0607,0.062,0.0625,0.0618,0.0637,0.0653,0.0437,0.0436,0.0435,0,0,0.0718,0.0724,0.0757,0.0765,0.076,0.0744,0.0751,0.0724,0.0722,0.0754,0.0702,0.0719,0.0711,0.0713,0.0713,0.0829,0.0722,0.0816,0.0913,0.0911,0.0927,0.094,0.0877,0.0884,0.0818,0.0818,0.0819,0,0.0742,0.0786,0.0769,0.0806,0.0826,0.0774,0.0818,0.0823,0.0804,0.0819,0.0787,0.0809,0.0785,0.0849,0.0891,0.0871,0.082,0.0831,0.0933,0.0945,0.0956,0.0889,0.0894,0.0827,0.0826,0.0825,0.0824,0,0.0815,0.0856,0.0883,0.0915,0.0938,0.0969,0.0976,0.0999,0.0988,0.0975,0.103,0.1014,0.1016,0.1027,0.0997,0.1068,0.099,0.0959,0.0875,0.0985,0.0907,0.0909,0.0839,0.0836,0.0834,0.0832,0,0,0.0852,0.092,0.0929,0.0974,0.0999,0.1031,0.1098,0.1141,0.1187,0.1181,0.1243,0.1276,0.1228,0.1228,0.119,0.1201,0.1234,0.1116,0.1112,0.1047,0.1177,0.1129,0.1125,0.121,0.1212,0.1213,0.1083,0,0.0911,0.1008,0.1025,0.1128,0.1185,0.119,0.1267,0.1297,0.1311,0.1358,0.1349,0.1388,0.1316,0.1328,0.1328,0.1275,0.125,0.1268,0.1087,0.1081,0.102,0.1132,0.1077,0.0958,0.1084,0.1085,0.1085,0,0.0976,0.1038,0.1146,0.1258,0.1284,0.1339,0.1443,0.1502,0.1545,0.1559,0.1567,0.153,0.1558,0.1484,0.1419,0.1425,0.1311,0.1251,0.1244,0.1148,0.104,0.0875,0.0956,0.0769,0.1087,0.1086,0.1086,0,0.1021,0.113,0.1224,0.1259,0.1368,0.1433,0.1491,0.1553,0.1625,0.1673,0.1717,0.1693,0.1718,0.1604,0.1472,0.144,0.138,0.1311,0.1143,0.1133,0.1028,0.1009,0.0907,0.1244,0.1244,0.1245,0.1245,0,0.1097,0.1175,0.1256,0.1316,0.1445,0.1498,0.1626,0.168,0.1764,0.1855,0.1812,0.1885,0.1756,0.1694,0.1524,0.1357,0.1405,0.1181,0.1124,0.108,0.1068,0.0851,0.076,0.124,0.1241,0.1242,0.1243,0,0.1154,0.1197,0.1316,0.1433,0.1472,0.157,0.1712,0.1796,0.1873,0.1996,0.2022,0.2045,0.1974,0.1798,0.1633,0.1447,0.1161,0.1184,0.1117,0.1057,0.0722,0.0643,0.0491,0.0418,0.0973,0.0972,0.097,0,0.1204,0.1268,0.1388,0.1447,0.1506,0.1638,0.1722,0.1836,0.1929,0.2098,0.2165,0.2158,0.216,0.1897,0.1579,0.1259,0.1101,0.0985,0.0934,0.0725,0.0593,0.0551,0.0498,0.0827,0.0825,0.0823,0.0821,0,0.1298,0.1321,0.1401,0.1509,0.1604,0.1734,0.1868,0.1966,0.2111,0.2234,0.2388,0.2417,0.2177,0.1882,0.1462,0.1228,0.0859,0.0934,0.0751,0.0518,0.0432,0.0327,0.0845,0.0804,0.0806,0.0807,0.0808,0.0809,0.1342,0.1401,0.1468,0.1579,0.168,0.1818,0.194,0.2082,0.2265,0.2471,0.2518,0.2593,0.2136,0.1578,0.1273,0.0648,0.0708,0.0446,0.0372,0.0354,0.0289,0.0758,0.0646,0.0646,0.0647,0.0648,0.0648,0,0.138,0.1436,0.1532,0.1657,0.1763,0.1819,0.2022,0.2154,0.2365,0.2543,0.2684,0.2449,0.1912,0.1359,0.0522,0.0147,0.0036,-0.0045,-0.0131,-0.0152,0.0273,0.0274,0.0038,0.0038,0.0038,0.0038,0.0038,0.0039,0.1401,0.1474,0.1519,0.1689,0.1782,0.1953,0.2077,0.2275,0.2445,0.261,0.2623,0.2622,0.2073,0.0731,-0.0153,-0.0331,-0.0556,-0.0613,-0.0681,-0.0429,-0.0389,-0.0351,-0.0371,-0.0738,-0.0739,-0.108,-0.1084,-0.1087]}],[{"header":{"parameterUnit":"m.s-1","parameterCategory":2,"la1":30.2991,"la2":30.254,"lo1":-89.0895,"lo2":-89.0444,"dy":0.0017,"dx":0.0017,"nx":28,"ny":28,"refTime":"2025-02-04T09:00:00:Z","depth":"2","parameterNumber":2,"parameterNumberName":"U-component_of_CURRENTS"},"data":[0,0,0,0,0,0,0,0,0,0,0,0,0,0,0,0,0,0,0,0,0,0,0,0,0,0,0,0,0,0,0,0,0,0,0,0,0,0,0,0,0,0,0,0,0,0,0,0,0,0,0,0,0,0,0,0,0,0,0.2185,0.2188,0,0.2364,0.2366,0.2367,0.2406,0.2406,0.2406,0.2405,0.2432,0.2433,0.2434,0,0,0,0,0,0,0,0,0,0,0,0,0,0.2092,0.2091,0.2185,0.2188,0.2192,0.2364,0.2366,0.2367,0.2406,0.2406,0.2405,0.2405,0.2432,0.2433,0.2434,0,0,0,0,0,0,0,0,0,0,0,0,0,0.2176,0.2091,0.2184,0.224,0.2248,0.2364,0.2366,0.2367,0.2406,0.2406,0.2405,0.2405,0.2432,0.2433,0.2434,0.2451,0,0,0.2439,0.2439,0,0,0,0,0,0,0,0,0.2171,0.2178,0.2229,0.2237,0.2246,0.2372,0.2344,0.2392,0.2406,0.2334,0.2405,0.2405,0.2406,0.2409,0.243,0.2452,0.2454,0.2439,0.244,0.244,0.2441,0,0,0,0,0,0,0,0.2165,0.2172,0.2245,0.2233,0.2243,0.2331,0.2339,0.2354,0.2358,0.234,0.2347,0.2385,0.2407,0.2429,0.2431,0.2454,0.2439,0.244,0.2441,0.2442,0.2525,0.2527,0,0,0,0,0,0,0.2155,0.2165,0.2239,0.2251,0.222,0.2333,0.2342,0.2323,0.2362,0.2372,0.2385,0.2386,0.2426,0.2429,0.2432,0.2521,0.244,0.2442,0.2443,0.2524,0.2526,0.2527,0,0,0,0,0,0,0.2151,0.2157,0.2232,0.2225,0.2242,0.2334,0.2314,0.2327,0.2366,0.2399,0.2404,0.2413,0.2426,0.243,0.243,0.252,0.2442,0.2444,0.2523,0.2525,0.2527,0.2656,0,0,0,0,0,0,0.2146,0.2153,0.2175,0.2222,0.2243,0.2308,0.2316,0.2331,0.2395,0.2398,0.2425,0.2426,0.2426,0.2428,0.2431,0.252,0.2445,0.2521,0.2523,0.2526,0.265,0.2663,0.2673,0,0,0,0,0,0.2141,0.2172,0.2173,0.2186,0.2253,0.2311,0.2328,0.2387,0.2396,0.2418,0.2413,0.2426,0.2448,0.2428,0.2433,0.2525,0.252,0.2523,0.2526,0.2645,0.266,0.2673,0,0,0,0,0,0,0.2162,0.2182,0.2183,0.2222,0.2265,0.2321,0.2389,0.2398,0.2419,0.2426,0.2422,0.2423,0.2486,0.2457,0.2435,0.2552,0.2496,0.25,0.2586,0.26,0.2611,0.2606,0.2446,0,0,0,0,0,0.217,0.2179,0.2216,0.2249,0.2281,0.2329,0.2377,0.2395,0.2417,0.2429,0.2438,0.2454,0.2503,0.2504,0.2538,0.2567,0.2546,0.2631,0.2643,0.2653,0.2649,0.2654,0.2666,0.2537,0.2537,0.2537,0,0,0.2196,0.2207,0.222,0.2255,0.2303,0.2333,0.2354,0.2422,0.2441,0.2426,0.2461,0.2507,0.2523,0.2585,0.2609,0.2565,0.2687,0.2657,0.2666,0.2656,0.2659,0.2671,0.2683,0.2539,0.2539,0.2539,0,0,0.2239,0.2253,0.2277,0.23,0.2365,0.2381,0.2395,0.2445,0.2475,0.2502,0.2529,0.2589,0.2624,0.2665,0.2689,0.2765,0.2767,0.2806,0.2841,0.2848,0.2859,0.2868,0.2896,0.2906,0.2787,0.2787,0.2787,0,0.2272,0.2273,0.2304,0.2327,0.2356,0.239,0.2414,0.2453,0.2487,0.2519,0.2521,0.2639,0.2666,0.2756,0.2804,0.28,0.2802,0.2798,0.2865,0.2873,0.288,0.2906,0.2915,0.2794,0.2793,0.2792,0.2792,0,0.2311,0.2323,0.2351,0.2355,0.2394,0.2423,0.2463,0.2503,0.2539,0.2574,0.2685,0.2728,0.2788,0.2846,0.2856,0.2954,0.2944,0.2903,0.2835,0.2901,0.2924,0.2932,0.2803,0.2801,0.2799,0.2797,0,0,0.2315,0.2362,0.2364,0.236,0.2399,0.2417,0.2478,0.2533,0.2589,0.2649,0.2728,0.2848,0.2896,0.2923,0.2974,0.2995,0.3086,0.2981,0.2978,0.3017,0.3127,0.3,0.2996,0.3063,0.3064,0.3065,0.3137,0,0.2322,0.2339,0.2372,0.2381,0.2386,0.2436,0.2479,0.254,0.2624,0.2709,0.2798,0.2895,0.2917,0.2986,0.3018,0.3087,0.3107,0.3072,0.3047,0.3047,0.2932,0.2999,0.2804,0.284,0.3145,0.3146,0.3147,0,0.2321,0.2322,0.2345,0.2358,0.2374,0.2396,0.2479,0.2518,0.2657,0.2748,0.2863,0.2939,0.3046,0.3033,0.3132,0.3114,0.313,0.3154,0.3155,0.2987,0.2932,0.2813,0.2842,0.3159,0.3158,0.3157,0.3156,0,0.2253,0.2284,0.2291,0.2295,0.2344,0.2384,0.2403,0.2531,0.2594,0.2771,0.2856,0.2988,0.3057,0.3103,0.3161,0.3162,0.3238,0.3224,0.3116,0.3109,0.2907,0.2877,0.3252,0.3252,0.3252,0.3251,0.3251,0,0.22,0.2197,0.2263,0.2256,0.2277,0.2324,0.2405,0.2475,0.2614,0.2705,0.2849,0.2949,0.3074,0.3134,0.3178,0.3168,0.3232,0.3137,0.3113,0.2949,0.2923,0.3153,0.3141,0.3254,0.3253,0.3253,0.3252,0,0.2119,0.2164,0.2157,0.2214,0.2248,0.2244,0.2359,0.2421,0.2558,0.2689,0.2739,0.2921,0.3002,0.3082,0.3174,0.3157,0.3179,0.3141,0.2953,0.2904,0.3058,0.3051,0.3067,0.3063,0.3059,0.3056,0.3054,0,0.2083,0.2076,0.212,0.2133,0.2166,0.2213,0.2266,0.2388,0.2477,0.2664,0.2712,0.2828,0.292,0.299,0.2995,0.3016,0.3074,0.2817,0.2761,0.306,0.3037,0.3036,0.3034,0.258,0.2574,0.2569,0.2565,0,0.1995,0.2019,0.2012,0.2054,0.2096,0.2147,0.223,0.2268,0.2426,0.2542,0.2657,0.2724,0.2806,0.2749,0.2746,0.2727,0.2806,0.2712,0.3071,0.2633,0.2599,0.2577,0.2592,0.252,0.2525,0.2528,0.253,0.2532,0.1928,0.1905,0.1927,0.1948,0.2019,0.206,0.2048,0.2145,0.2219,0.231,0.2475,0.2509,0.2568,0.2461,0.2397,0.2349,0.2535,0.245,0.2467,0.2489,0.2395,0.2354,0.2215,0.2218,0.222,0.2222,0.2224,0,0.183,0.1825,0.1837,0.1859,0.189,0.198,0.203,0.1983,0.2001,0.2126,0.2206,0.2067,0.2039,0.2079,0.1966,0.197,0.1969,0.1874,0.188,0.1925,0.1966,0.1846,0.1521,0.1518,0.1516,0.1513,0,0,0.1774,0.1712,0.1717,0.1723,0.1784,0.1793,0.1777,0.1706,0.1747,0.1711,0.1753,0.1916,0.2036,0.1752,0.1722,0.1611,0.1747,0.154,0.2111,0.2165,0.2202,0.2312,0.218,0,0,0,0,0]},{"header":{"parameterUnit":"m.s-1","parameterCategory":2,"la1":30.2991,"la2":30.254,"lo1":-89.0895,"lo2":-89.0444,"dy":0.0017,"dx":0.0017,"nx":28,"ny":28,"refTime":"2025-02-04T09:00:00:Z","depth":"2","parameterNumber":3,"parameterNumberName":"V-component_of_CURRENTS"},"data":[0,0,0,0,0,0,0,0,0,0,0,0,0,0,0,0,0,0,0,0,0,0,0,0,0,0,0,0,0,0,0,0,0,0,0,0,0,0,0,0,0,0,0,0,0,0,0,0,0,0,0,0,0,0,0,0,0,0,0.0012,0.0013,0,0.004,0.0039,0.0039,0.002,0.002,0.002,0.002,-0.0055,-0.0057,-0.0059,0,0,0,0,0,0,0,0,0,0,0,0,0,-0.0009,-0.0009,0.0012,0.0013,0.0014,0.004,0.0039,0.0039,0.002,0.002,0.002,0.002,-0.0055,-0.0057,-0.0059,0,0,0,0,0,0,0,0,0,0,0,0,0,0.0001,-0.0009,0.0012,0.0013,0.0014,0.004,0.0039,0.0039,0.002,0.002,0.002,0.002,-0.0054,-0.0057,-0.0059,-0.0069,0,0,-0.0067,-0.0069,0,0,0,0,0,0,0,0,0.0,0.0001,0.0012,0.0013,0.0014,0.0032,0.0005,0.0,0.0021,0.0011,0.002,0.0019,-0.0031,-0.0035,-0.0038,-0.0073,-0.0076,-0.0068,-0.0069,-0.007,-0.0071,0,0,0,0,0,0,0,-0.0,-0.0,0.0016,0.0013,0.0015,0.0029,0.0029,0.0004,-0.0016,0.0012,0.0012,0.0026,-0.0032,-0.0035,-0.004,-0.0077,-0.0068,-0.007,-0.0072,-0.0073,-0.0132,-0.0132,0,0,0,0,0,0,0.0008,-0.0001,0.0015,0.0018,0.0014,0.003,0.0029,0.0021,-0.0013,-0.0016,0.0026,0.0025,-0.003,-0.0037,-0.0043,-0.0057,-0.007,-0.0073,-0.0075,-0.0132,-0.0132,-0.0132,0,0,0,0,0,0,0.0007,0.0008,0.0014,0.0016,0.0019,0.0031,0.0022,0.0022,0.0022,0.0,-0.0006,0.0028,-0.0031,-0.0039,-0.0073,-0.006,-0.0074,-0.0077,-0.0132,-0.0132,-0.0132,-0.0085,0,0,0,0,0,0,0.0006,0.0007,0.0009,0.0016,0.0019,0.0031,0.0023,0.0023,0.0035,0.0033,-0.0001,-0.0008,-0.0032,-0.0069,-0.0076,-0.0064,-0.0079,-0.0132,-0.0132,-0.0132,-0.0087,-0.0084,-0.0081,0,0,0,0,0,0.0004,0.001,0.0008,0.0011,0.0018,0.0032,0.0033,0.0038,0.0035,0.0035,0.0005,-0.0007,-0.0073,-0.0072,-0.008,-0.0068,-0.0132,-0.0132,-0.0132,-0.0088,-0.0084,-0.0081,0,0,0,0,0,0,0.0006,0.001,0.0007,0.0014,0.0024,0.0031,0.0044,0.0042,0.0021,0.0018,-0.0015,-0.0024,-0.0047,-0.0068,-0.0065,-0.0085,-0.0101,-0.0102,-0.0065,-0.0061,-0.0058,-0.0037,-0.0081,0,0,0,0,0,0.0008,0.0009,0.0016,0.0024,0.003,0.0036,0.0045,0.0046,0.0033,0.0025,0.0001,-0.0027,-0.0051,-0.0065,-0.0092,-0.0107,-0.0128,-0.0102,-0.0099,-0.0097,-0.0085,-0.0122,-0.0121,-0.0131,-0.0131,-0.0131,0,0,0.0016,0.0018,0.0021,0.0026,0.0034,0.0044,0.0038,0.0055,0.0063,0.0019,0.0011,-0.002,-0.0055,-0.0072,-0.0082,-0.0088,-0.0104,-0.0096,-0.0094,-0.0083,-0.0122,-0.0121,-0.012,-0.0131,-0.0131,-0.0131,0,0,0.004,0.0029,0.0043,0.0047,0.0065,0.006,0.0066,0.0069,0.0069,0.0057,0.0029,0.0001,-0.0032,-0.0055,-0.007,-0.0067,-0.0089,-0.0069,-0.0034,-0.007,-0.0069,-0.0069,-0.0089,-0.0091,-0.0064,-0.0064,-0.0064,0,0.0049,0.0061,0.0052,0.0068,0.008,0.0067,0.0086,0.0084,0.0074,0.0082,0.0059,0.0016,-0.0022,-0.0034,-0.0036,-0.0058,-0.0077,-0.0043,-0.0065,-0.0065,-0.0066,-0.0087,-0.0089,-0.0062,-0.0062,-0.0063,-0.0063,0,0.0088,0.0095,0.0106,0.011,0.0116,0.0131,0.0128,0.0128,0.012,0.0122,0.0112,0.0056,0.0039,0.0018,-0.0011,-0.0022,-0.0033,-0.0059,-0.0071,-0.0062,-0.0085,-0.0088,-0.0059,-0.006,-0.006,-0.0061,0,0,0.0112,0.0128,0.0132,0.0141,0.014,0.0148,0.0159,0.0172,0.0199,0.0167,0.0197,0.0132,0.0118,0.0098,0.0059,0.002,-0.0009,-0.0014,-0.0017,-0.0028,-0.0075,-0.0099,-0.0105,-0.0038,-0.0039,-0.0039,-0.0088,0,0.0146,0.0179,0.0177,0.0201,0.0215,0.0204,0.0216,0.0225,0.0234,0.0256,0.0211,0.0212,0.0147,0.0142,0.0094,0.0029,-0.0016,0.0008,-0.0088,-0.009,-0.0108,-0.011,-0.0081,-0.0123,-0.0091,-0.0092,-0.0092,0,0.0188,0.02,0.0233,0.0247,0.0253,0.0259,0.0288,0.03,0.0324,0.0341,0.0338,0.0318,0.0277,0.021,0.0099,0.0121,0.0028,-0.0041,-0.0045,-0.0084,-0.0121,-0.013,-0.0131,-0.0099,-0.0098,-0.0098,-0.0097,0,0.0212,0.0239,0.0263,0.0268,0.028,0.0294,0.0295,0.0324,0.0358,0.0398,0.0426,0.0394,0.0372,0.0263,0.0128,0.0118,-0.0003,-0.0034,-0.0148,-0.015,-0.0152,-0.0153,-0.0135,-0.0135,-0.0134,-0.0134,-0.0134,0,0.0244,0.0263,0.0274,0.0286,0.0319,0.0314,0.0365,0.0381,0.0425,0.0484,0.0463,0.049,0.0378,0.0304,0.017,0.0012,0.0027,-0.0137,-0.0167,-0.0135,-0.0134,-0.0136,-0.0135,-0.0136,-0.0136,-0.0135,-0.0135,0,0.0265,0.0275,0.0304,0.0322,0.0331,0.035,0.0395,0.0452,0.0469,0.0547,0.056,0.0561,0.0475,0.0343,0.0182,0.0063,-0.0085,-0.0161,-0.0105,-0.0128,-0.0215,-0.0211,-0.0265,-0.0266,-0.0267,-0.0268,-0.0269,0,0.0279,0.0294,0.0328,0.0358,0.0366,0.0399,0.0446,0.0476,0.0546,0.0588,0.0636,0.0582,0.0579,0.0345,0.0141,-0.007,-0.0121,-0.0203,-0.023,-0.0206,-0.0229,-0.0224,-0.0219,-0.0209,-0.021,-0.021,-0.021,0,0.0293,0.0305,0.0329,0.0399,0.0448,0.0511,0.057,0.0633,0.0689,0.0746,0.0809,0.08,0.0586,0.0413,0.0115,-0.004,-0.0153,-0.0215,-0.0205,-0.0184,-0.0159,-0.018,-0.0176,-0.0212,-0.0212,-0.0211,-0.0211,-0.0211,0.0302,0.0331,0.0375,0.0444,0.0511,0.0619,0.0691,0.0783,0.0888,0.098,0.0943,0.093,0.0686,0.0336,0.0078,-0.0182,-0.0186,-0.0276,-0.0273,-0.0271,-0.0258,-0.0237,-0.0302,-0.0302,-0.0302,-0.0302,-0.0303,0,0.0316,0.0358,0.0424,0.0518,0.0613,0.064,0.078,0.0867,0.1011,0.1089,0.1126,0.0901,0.0675,0.0389,0.0011,-0.023,-0.0241,-0.0309,-0.0263,-0.026,-0.0258,-0.0243,-0.0283,-0.0283,-0.0284,-0.0284,0,0,0.032,0.0395,0.0441,0.0591,0.0662,0.0799,0.0889,0.1016,0.1103,0.119,0.1189,0.1117,0.0772,0.05,0.0165,-0.0044,-0.0093,-0.0092,-0.0084,0.0014,0.002,-0.0219,-0.0192,0,0,0,0,0]}],[{"header":{"parameterUnit":"m.s-1","parameterCategory":2,"la1":30.2991,"la2":30.254,"lo1":-89.0895,"lo2":-89.0444,"dy":0.0017,"dx":0.0017,"nx":28,"ny":28,"refTime":"2025-02-04T09:00:00:Z","depth":"4","parameterNumber":2,"parameterNumberName":"U-component_of_CURRENTS"},"data":[0,0,0,0,0,0,0,0,0,0,0,0,0,0,0,0,0,0,0,0,0,0,0,0,0,0,0,0,0,0,0,0,0,0,0,0,0,0,0,0,0,0,0,0,0,0,0,0,0,0,0,0,0,0,0,0,0,0,0.1195,0.1196,0,0.1296,0.1297,0.1298,0.1338,0.1338,0.1338,0.1339,0.1368,0.1369,0.137,0,0,0,0,0,0,0,0,0,0,0,0,0,0.1123,0.1123,0.1195,0.1197,0.1198,0.1296,0.1297,0.1298,0.1338,0.1338,0.1338,0.1339,0.1368,0.1369,0.137,0,0,0,0,0,0,0,0,0,0,0,0,0,0.1177,0.1123,0.1194,0.1234,0.1239,0.1296,0.1297,0.1298,0.1338,0.1338,0.1339,0.1339,0.1368,0.1369,0.137,0.1368,0,0,0.1372,0.1373,0,0,0,0,0,0,0,0,0.1174,0.1179,0.1226,0.1231,0.1237,0.131,0.1283,0.132,0.1338,0.1295,0.1339,0.1339,0.1345,0.1348,0.136,0.137,0.1371,0.1372,0.1373,0.1373,0.1374,0,0,0,0,0,0,0,0.117,0.1175,0.123,0.1228,0.1235,0.1277,0.1284,0.1291,0.1311,0.1298,0.1303,0.1323,0.1347,0.1359,0.1361,0.1371,0.1372,0.1373,0.1374,0.1374,0.1437,0.1438,0,0,0,0,0,0,0.1163,0.1171,0.1226,0.1233,0.1212,0.1278,0.1286,0.1282,0.1313,0.132,0.1322,0.1324,0.1357,0.136,0.1362,0.1412,0.1373,0.1374,0.1375,0.1436,0.1437,0.1438,0,0,0,0,0,0,0.1161,0.1166,0.1222,0.1211,0.1221,0.1279,0.1275,0.1284,0.1321,0.1333,0.1338,0.1354,0.1358,0.1361,0.138,0.1412,0.1375,0.1375,0.1434,0.1436,0.1438,0.1481,0,0,0,0,0,0,0.1158,0.1164,0.1182,0.1209,0.1222,0.1266,0.1275,0.1285,0.1333,0.1337,0.1361,0.1363,0.1358,0.1379,0.1381,0.1412,0.1376,0.1433,0.1435,0.1437,0.1478,0.1484,0.1489,0,0,0,0,0,0.1154,0.1173,0.1181,0.119,0.1236,0.1268,0.1278,0.1317,0.1335,0.1351,0.1365,0.1363,0.1395,0.138,0.1382,0.1415,0.1432,0.1435,0.1437,0.1475,0.1482,0.1488,0,0,0,0,0,0,0.1161,0.1181,0.119,0.1216,0.1245,0.1277,0.1312,0.1332,0.1359,0.1373,0.1371,0.1373,0.1401,0.1402,0.1386,0.144,0.1416,0.1419,0.1445,0.1451,0.1457,0.1445,0.1377,0,0,0,0,0,0.1168,0.1182,0.1206,0.1232,0.1246,0.1281,0.131,0.1335,0.1357,0.1372,0.1388,0.1404,0.141,0.1426,0.143,0.1461,0.146,0.1486,0.1491,0.1496,0.1489,0.1521,0.1529,0.1447,0.1447,0.1447,0,0,0.1178,0.1196,0.1204,0.1235,0.1261,0.1281,0.1298,0.1347,0.1369,0.1369,0.141,0.142,0.142,0.1448,0.1463,0.1457,0.152,0.1499,0.1503,0.1493,0.1525,0.1533,0.154,0.1449,0.1448,0.1448,0,0,0.1193,0.1217,0.1227,0.1247,0.1295,0.1315,0.1331,0.1373,0.1399,0.1432,0.1437,0.1466,0.1485,0.1495,0.1498,0.1538,0.154,0.1552,0.158,0.1613,0.162,0.1626,0.1639,0.1646,0.1564,0.1565,0.1565,0,0.121,0.1218,0.1241,0.1254,0.128,0.1325,0.1344,0.1372,0.142,0.1444,0.145,0.1495,0.1503,0.1529,0.1546,0.155,0.1563,0.1555,0.162,0.1626,0.1631,0.1643,0.165,0.1567,0.1567,0.1566,0.1566,0,0.1214,0.1236,0.1248,0.1269,0.1299,0.1331,0.1365,0.141,0.145,0.1475,0.1522,0.1536,0.1566,0.158,0.1573,0.1623,0.1617,0.1615,0.1602,0.1642,0.1652,0.1659,0.157,0.1569,0.1569,0.1568,0,0,0.1204,0.1242,0.1248,0.1257,0.1313,0.133,0.1383,0.1431,0.1475,0.1517,0.1565,0.1584,0.1612,0.1617,0.163,0.1659,0.1714,0.1661,0.1662,0.1671,0.178,0.1685,0.1683,0.1732,0.1733,0.1734,0.1772,0,0.1202,0.1218,0.125,0.1277,0.1283,0.1346,0.1386,0.1442,0.1501,0.1561,0.159,0.1638,0.162,0.166,0.1681,0.1715,0.1732,0.1702,0.1741,0.1742,0.1651,0.1688,0.1738,0.1777,0.1778,0.1779,0.178,0,0.1187,0.12,0.122,0.1268,0.1281,0.1315,0.1402,0.1449,0.1542,0.1596,0.1654,0.1685,0.1742,0.1724,0.1777,0.1764,0.1768,0.1778,0.1781,0.1677,0.1659,0.1728,0.1792,0.1791,0.179,0.1789,0.1788,0,0.114,0.118,0.1197,0.1209,0.1271,0.1311,0.1365,0.1461,0.1516,0.1637,0.1698,0.1753,0.1808,0.1824,0.1845,0.183,0.1893,0.1877,0.1781,0.1775,0.1829,0.1822,0.1893,0.1893,0.1893,0.1893,0.1893,0,0.1107,0.1119,0.1177,0.1179,0.1212,0.128,0.1351,0.1428,0.1547,0.1611,0.1713,0.1767,0.184,0.1881,0.1875,0.1849,0.1919,0.1782,0.178,0.1846,0.1841,0.1833,0.1826,0.1894,0.1894,0.1894,0.1893,0,0.1039,0.1082,0.1092,0.1158,0.1186,0.121,0.1331,0.1386,0.1522,0.162,0.1668,0.1803,0.1871,0.1909,0.1957,0.1886,0.1878,0.1842,0.1913,0.1914,0.1727,0.1721,0.174,0.1737,0.1735,0.1733,0.1731,0,0.1,0.1003,0.1059,0.1073,0.1106,0.1166,0.1218,0.1357,0.1425,0.1616,0.165,0.1777,0.1844,0.1832,0.1885,0.1875,0.184,0.1815,0.1753,0.1716,0.1713,0.1711,0.1709,0.1727,0.1726,0.1726,0.1725,0,0.092,0.0954,0.0964,0.0999,0.1042,0.1081,0.117,0.1211,0.138,0.1507,0.1603,0.1655,0.1729,0.1769,0.1781,0.1762,0.1828,0.1788,0.1792,0.1734,0.17,0.1699,0.17,0.1716,0.1718,0.1718,0.1719,0,0.0865,0.0852,0.0888,0.091,0.0958,0.0987,0.1044,0.1132,0.1216,0.1432,0.1453,0.1594,0.1712,0.1711,0.1718,0.1707,0.1669,0.1592,0.1606,0.1616,0.1557,0.1495,0.1445,0,0,0,0,0,0.0796,0.0783,0.0802,0.0817,0.0868,0.0904,0.101,0.1084,0.1239,0.1269,0.1365,0.1431,0.1491,0.1562,0.1523,0.1647,0.1662,0.1592,0.1576,0.1668,0.1678,0.162,0,0,0,0,0,0,0.0748,0.0754,0.0764,0.0744,0.0752,0.0802,0.0868,0.0976,0.1008,0.1171,0.1213,0.133,0.1406,0.1493,0.1491,0.1508,0.1464,0.1675,0.1671,0.1662,0.1671,0.1679,0.1623,0,0,0,0,0]},{"header":{"parameterUnit":"m.s-1","parameterCategory":2,"la1":30.2991,"la2":30.254,"lo1":-89.0895,"lo2":-89.0444,"dy":0.0017,"dx":0.0017,"nx":28,"ny":28,"refTime":"2025-02-04T09:00:00:Z","depth":"4","parameterNumber":3,"parameterNumberName":"V-component_of_CURRENTS"},"data":[0,0,0,0,0,0,0,0,0,0,0,0,0,0,0,0,0,0,0,0,0,0,0,0,0,0,0,0,0,0,0,0,0,0,0,0,0,0,0,0,0,0,0,0,0,0,0,0,0,0,0,0,0,0,0,0,0,0,-0.0001,-0.0001,0,-0.0003,-0.0003,-0.0003,-0.0007,-0.0007,-0.0007,-0.0007,-0.0062,-0.0064,-0.0065,0,0,0,0,0,0,0,0,0,0,0,0,0,-0.0001,-0.0001,-0.0001,-0.0001,-0.0001,-0.0003,-0.0003,-0.0003,-0.0007,-0.0007,-0.0007,-0.0007,-0.0062,-0.0064,-0.0065,0,0,0,0,0,0,0,0,0,0,0,0,0,-0.0003,-0.0001,-0.0001,-0.0002,-0.0002,-0.0003,-0.0003,-0.0003,-0.0007,-0.0007,-0.0007,-0.0007,-0.0061,-0.0063,-0.0066,-0.008,0,0,-0.0072,-0.0073,0,0,0,0,0,0,0,0,-0.0003,-0.0003,-0.0002,-0.0002,-0.0002,-0.0004,-0.0024,-0.0031,-0.0007,-0.0006,-0.0007,-0.0006,-0.0047,-0.0051,-0.0051,-0.0083,-0.0085,-0.0073,-0.0074,-0.0075,-0.0076,0,0,0,0,0,0,0,-0.0003,-0.0003,-0.0003,-0.0002,-0.0002,-0.0003,-0.0004,-0.0025,-0.0028,-0.0006,-0.0006,-0.0005,-0.0048,-0.0049,-0.0053,-0.0086,-0.0073,-0.0075,-0.0076,-0.0077,-0.0141,-0.0141,0,0,0,0,0,0,-0.0001,-0.0003,-0.0002,-0.0003,-0.0002,-0.0003,-0.0004,-0.0004,-0.0027,-0.003,-0.0005,-0.0005,-0.0045,-0.005,-0.0055,-0.0079,-0.0075,-0.0077,-0.0078,-0.014,-0.0141,-0.0141,0,0,0,0,0,0,-0.0001,-0.0001,-0.0002,-0.0002,-0.0002,-0.0003,-0.0004,-0.0004,-0.0005,-0.0025,-0.0029,-0.0006,-0.0046,-0.0052,-0.0075,-0.0081,-0.0078,-0.008,-0.014,-0.0141,-0.0141,-0.0123,0,0,0,0,0,0,-0.0001,-0.0001,-0.0,-0.0002,-0.0002,0.0,-0.0004,-0.0004,-0.0004,-0.0005,-0.0028,-0.0032,-0.0046,-0.0071,-0.0077,-0.0084,-0.0082,-0.014,-0.014,-0.0141,-0.0123,-0.0123,-0.0122,0,0,0,0,0,-0.0001,0.0001,-0.0,0.0,-0.0001,0.0001,0.0,-0.0001,-0.0004,-0.0003,-0.0021,-0.0032,-0.008,-0.0074,-0.008,-0.0088,-0.0139,-0.014,-0.0141,-0.0123,-0.0123,-0.0122,0,0,0,0,0,0,0.0001,0.0001,-0.0,0.0001,0.0002,0.0,0.0002,-0.0001,-0.0013,-0.0015,-0.0037,-0.0043,-0.0066,-0.008,-0.0073,-0.0108,-0.0111,-0.0113,-0.0096,-0.0096,-0.0095,-0.0078,-0.0084,0,0,0,0,0,0.0002,0.0003,0.0003,0.0005,0.0005,0.0003,0.0003,0.0003,-0.0007,-0.0011,-0.0029,-0.0052,-0.0074,-0.0087,-0.0107,-0.0127,-0.0143,-0.0137,-0.0136,-0.0136,-0.0127,-0.0166,-0.0168,-0.0144,-0.0144,-0.0144,0,0,0.0005,0.0004,0.0005,0.0005,0.0005,0.0013,0.0003,0.0006,0.0009,-0.0018,-0.0026,-0.0052,-0.008,-0.01,-0.0112,-0.0113,-0.0151,-0.0137,-0.0136,-0.0127,-0.0167,-0.0169,-0.0171,-0.0144,-0.0144,-0.0144,0,0,0.0017,0.0009,0.0018,0.0019,0.0022,0.0019,0.002,0.0016,0.0011,-0.0002,-0.0022,-0.005,-0.0081,-0.0101,-0.0116,-0.0128,-0.0149,-0.0137,-0.0122,-0.016,-0.0162,-0.0164,-0.0184,-0.0188,-0.0136,-0.0136,-0.0136,0,0.0021,0.0032,0.0021,0.0032,0.0037,0.0023,0.0038,0.0029,0.0017,0.0012,-0.0003,-0.0053,-0.0081,-0.0106,-0.011,-0.0127,-0.0145,-0.012,-0.0159,-0.0161,-0.0164,-0.0184,-0.0189,-0.0136,-0.0136,-0.0136,-0.0136,0,0.0044,0.0052,0.0057,0.0065,0.0067,0.0076,0.0066,0.0059,0.0044,0.0035,0.0005,-0.0038,-0.0064,-0.0085,-0.0102,-0.0131,-0.0137,-0.0154,-0.0157,-0.0165,-0.0186,-0.0191,-0.0134,-0.0135,-0.0135,-0.0135,0,0,0.0059,0.0072,0.0076,0.009,0.0088,0.0096,0.009,0.0088,0.0089,0.0055,0.0047,-0.0006,-0.0028,-0.0046,-0.008,-0.0118,-0.0156,-0.014,-0.0142,-0.0154,-0.0229,-0.0216,-0.022,-0.0183,-0.0183,-0.0184,-0.0235,0,0.0085,0.0116,0.0113,0.0142,0.0157,0.0142,0.0141,0.0133,0.0113,0.0097,0.0043,0.0022,-0.0013,-0.003,-0.0074,-0.0134,-0.0169,-0.014,-0.0224,-0.0225,-0.0209,-0.0226,-0.0187,-0.0239,-0.024,-0.0241,-0.0242,0,0.0111,0.013,0.0165,0.0187,0.0192,0.0204,0.0205,0.0204,0.0172,0.0153,0.0116,0.0078,0.0024,-0.0012,-0.0113,-0.0092,-0.0153,-0.0206,-0.0209,-0.0204,-0.0222,-0.0232,-0.0251,-0.025,-0.025,-0.0249,-0.0248,0,0.0135,0.0167,0.0198,0.0206,0.0223,0.0234,0.0241,0.0224,0.0232,0.0191,0.0186,0.0115,0.0079,-0.001,-0.0111,-0.0114,-0.0228,-0.0246,-0.029,-0.0289,-0.0292,-0.029,-0.0318,-0.0318,-0.0318,-0.0318,-0.0318,0,0.0161,0.0187,0.0215,0.0233,0.0275,0.027,0.0303,0.0291,0.0281,0.0298,0.0224,0.0211,0.0075,-0.0003,-0.0099,-0.0204,-0.0217,-0.0284,-0.0304,-0.0283,-0.0279,-0.0296,-0.0293,-0.032,-0.032,-0.0319,-0.0319,0,0.018,0.0195,0.0237,0.027,0.0288,0.0317,0.0361,0.0382,0.036,0.0374,0.0366,0.028,0.0177,0.0046,-0.0104,-0.0178,-0.0287,-0.0323,-0.0277,-0.0294,-0.0324,-0.0319,-0.0369,-0.037,-0.037,-0.037,-0.037,0,0.0192,0.0213,0.0272,0.0307,0.0328,0.0376,0.0413,0.042,0.0447,0.0423,0.0433,0.0337,0.0268,0.0073,-0.0077,-0.0257,-0.0286,-0.0339,-0.0344,-0.0316,-0.033,-0.0326,-0.0321,-0.037,-0.037,-0.037,-0.037,0,0.0215,0.0233,0.0272,0.0347,0.04,0.0461,0.0513,0.0542,0.0548,0.0533,0.0497,0.0387,0.0265,0.0094,-0.0053,-0.0183,-0.0304,-0.0339,-0.034,-0.0346,-0.0317,-0.033,-0.0325,-0.037,-0.037,-0.037,-0.037,0,0.0232,0.0264,0.0317,0.0385,0.0454,0.0522,0.055,0.0584,0.0605,0.0581,0.0569,0.0426,0.0336,0.0133,0.0002,-0.0131,-0.0165,-0.0206,-0.0214,-0.0216,-0.0163,-0.0103,-0.0106,0,0,0,0,0,0.0246,0.0289,0.0354,0.043,0.0499,0.054,0.0607,0.0627,0.0641,0.0631,0.0602,0.0492,0.0286,0.0187,0.0059,-0.0007,-0.0194,-0.0162,-0.0247,-0.037,-0.037,-0.0334,0,0,0,0,0,0,0.0256,0.0315,0.0355,0.0452,0.0509,0.0589,0.0633,0.0646,0.0639,0.0627,0.0519,0.0461,0.0258,0.0358,0.0055,0.0013,-0.0057,-0.0262,-0.0265,-0.037,-0.037,-0.037,-0.0333,0,0,0,0,0]}]]